TimeMDT,TemperatureF,Dew PointF,Humidity,Sea Level PressureIn,VisibilityMPH,Wind Direction,Wind SpeedMPH,Gust SpeedMPH,PrecipitationIn,Events,Conditions,WindDirDegrees,DateUTC
12:53 AM,28.9,24.1,82,30.23,10.0,Calm,Calm,-,N/A,,Clear,0,2011-10-19 06:53:00
1:53 AM,28.0,23.0,81,30.19,10.0,Calm,Calm,-,N/A,,Clear,0,2011-10-19 07:53:00
2:53 AM,25.0,21.9,88,30.19,10.0,SE,6.9,-,N/A,,Clear,140,2011-10-19 08:53:00
3:53 AM,25.0,21.0,85,30.16,10.0,Calm,Calm,-,N/A,,Clear,0,2011-10-19 09:53:00
4:53 AM,25.0,21.0,85,30.14,10.0,Calm,Calm,-,N/A,,Clear,0,2011-10-19 10:53:00
5:53 AM,24.1,19.9,84,30.13,10.0,ESE,4.6,-,N/A,,Clear,110,2011-10-19 11:53:00
6:53 AM,24.1,19.9,84,30.14,10.0,Calm,Calm,-,N/A,,Clear,0,2011-10-19 12:53:00
7:53 AM,23.0,19.0,85,30.17,10.0,Calm,Calm,-,N/A,,Clear,0,2011-10-19 13:53:00
8:53 AM,28.0,23.0,81,30.15,10.0,SE,5.8,-,N/A,,Clear,140,2011-10-19 14:53:00
9:53 AM,30.2,26.6,86,30.05,10.0,Calm,Calm,-,N/A,,Clear,0,2011-10-19 15:53:00
10:53 AM,39.9,28.0,63,30.09,10.0,Calm,Calm,-,N/A,,Clear,0,2011-10-19 16:53:00
11:53 AM,43.0,26.1,51,30.07,10.0,Calm,Calm,-,N/A,,Clear,0,2011-10-19 17:53:00
12:53 PM,48.0,26.1,42,30.03,10.0,Calm,Calm,-,N/A,,Clear,0,2011-10-19 18:53:00
1:53 PM,52.0,28.0,40,30.00,10.0,North,3.5,-,N/A,,Clear,10,2011-10-19 19:53:00
2:53 PM,54.0,30.0,40,29.99,10.0,NNW,3.5,-,N/A,,Clear,340,2011-10-19 20:53:00
3:53 PM,55.9,26.1,32,29.98,10.0,North,3.5,-,N/A,,Clear,350,2011-10-19 21:53:00
4:53 PM,55.9,23.0,28,29.98,10.0,NW,3.5,-,N/A,,Clear,320,2011-10-19 22:53:00
5:53 PM,54.0,27.0,35,29.99,10.0,NNE,4.6,-,N/A,,Clear,20,2011-10-19 23:53:00
6:53 PM,51.1,28.9,43,30.02,10.0,NW,6.9,-,N/A,,Partly Cloudy,310,2011-10-20 00:53:00
7:53 PM,45.0,30.0,56,30.08,10.0,NNW,6.9,-,N/A,,Clear,340,2011-10-20 01:53:00
8:53 PM,41.0,30.0,65,30.07,10.0,Calm,Calm,-,N/A,,Clear,0,2011-10-20 02:53:00
9:53 PM,34.0,28.0,79,30.10,10.0,SSE,4.6,-,N/A,,Clear,150,2011-10-20 03:53:00
10:53 PM,33.1,27.0,78,30.09,10.0,Calm,Calm,-,N/A,,Clear,0,2011-10-20 04:53:00
11:53 PM,30.0,26.1,85,30.09,10.0,SSE,4.6,-,N/A,,Clear,150,2011-10-20 05:53:00